Temperature
18 18 18 18 18 18 18 18 18 18 18 18 18 18 18 18 18 18 18 18 18 18 18 18 18 17 17 17 17 17 17 17 17 17 17 17 16 16 16 16 16 16 16
18 18 18 18 18 18 18 18 18 18 18 18 18 18 18 18 18 18 18 18 18 18 18 18 17 17 17 17 17 17 17 17 17 17 17 17 16 16 16 16 16 16 16
18 18 18 18 18 18 18 18 18 18 18 18 18 18 18 18 18 18 18 18 18 18 18 18 17 17 17 17 17 17 17 17 17 17 17 17 17 16 16 16 16 16 16
18 18 18 18 18 18 18 18 18 18 18 18 18 18 18 18 18 18 18 18 18 18 17 17 17 17 17 17 17 17 17 17 17 17 17 17 17 17 16 16 16 16 16
18 18 18 18 18 18 18 18 18 18 18 18 18 18 18 18 18 18 17 17 17 17 17 17 17 17 17 17 17 17 17 17 17 17 17 17 17 17 16 16 16 16 16
18 18 18 18 18 18 18 18 18 18 18 18 18 18 18 18 18 18 18 18 17 17 17 17 17 17 17 17 17 17 17 17 17 17 17 17 17 16 16 16 16 16 16
18 18 18 18 18 18 18 18 18 18 18 18 18 18 18 18 18 18 18 18 18 18 17 17 17 17 17 17 17 17 17 17 17 17 17 16 16 16 16 16 16 16 16
18 18 18 18 18 18 18 18 18 18 18 18 18 18 18 18 18 18 18 18 18 18 17 17 17 17 17 17 17 17 17 17 17 17 16 16 16 16 16 16 16 16 16
18 18 18 18 18 18 18 18 18 18 18 18 18 18 18 18 18 18 18 18 18 18 18 17 17 17 17 17 17 17 17 17 17 17 16 16 16 16 16 16 16 16 16
18 18 18 18 18 18 18 18 18 18 18 18 18 18 18 18 18 18 18 18 18 18 18 17 17 17 17 17 17 17 17 17 17 17 17 16 16 16 16 16 16 16 16
18 18 18 18 18 18 18 18 18 18 18 18 18 18 18 18 18 18 18 18 18 18 18 18 18 17 17 17 17 17 17 17 17 17 17 16 16 16 16 16 16 16 16
18 18 18 18 18 18 18 18 18 18 18 18 18 18 18 18 18 18 18 18 18 18 18 18 18 18 17 17 17 17 17 17 17 17 17 16 16 16 16 16 16 16 16
18 18 18 18 18 18 18 18 18 18 18 18 18 18 18 18 18 18 18 18 18 18 18 18 18 18 17 17 17 17 17 17 17 17 17 16 16 16 16 16 16 16 16
18 18 18 18 18 18 18 18 18 18 18 18 17 18 17 18 18 18 18 18 17 18 18 18 18 18 17 17 17 17 17 17 16 16 16 16 16 16 16 16 16 16 16
18 18 18 18 18 18 18 18 18 18 18 17 17 17 17 17 17 17 17 18 17 17 17 18 18 18 17 17 17 17 17 16 16 16 16 16 16 16 16 16 16 16 15
18 18 18 18 18 18 17 17 17 17 17 17 17 17 17 17 17 17 17 17 17 17 17 18 18 18 17 17 17 17 16 16 16 16 16 16 16 16 16 16 16 16 15
18 17 17 17 17 17 17 17 17 17 17 17 17 17 17 17 17 17 17 17 17 17 17 17 17 17 17 17 17 16 16 16 16 16 16 16 16 16 16 16 16 15 15
17 17 17 17 17 17 17 17 17 17 16 17 17 17 17 17 17 17 17 17 17 17 17 17 17 17 17 17 16 16 16 16 16 16 16 16 16 16 16 15 15 15 15
17 17 17 17 17 17 16 17 17 16 16 16 16 16 16 16 16 16 17 17 17 17 17 16 16 16 16 16 16 16 16 16 16 16 16 16 16 16 16 15 15 15 15
17 17 17 16 16 16 16 16 16 16 16 16 16 16 16 16 16 16 16 16 16 16 16 16 16 16 16 16 16 16 16 16 15 15 15 16 16 16 15 15 15 15 15
16 16 16 16 16 16 16 16 16 16 16 16 16 16 16 16 16 16 16 16 16 16 16 16 16 16 16 15 16 15 15 15 15 15 15 15 15 15 15 15 15 15 15
16 16 16 16 16 16 16 16 16 16 16 16 15 16 16 16 16 16 16 16 16 15 15 15 15 15 15 15 15 15 15 15 15 15 15 15 15 15 15 15 15 15 15
16 16 16 16 16 16 16 16 16 16 15 15 15 15 15 15 15 16 16 15 15 15 15 15 15 15 15 15 15 15 15 15 15 15 15 15 15 15 15 15 15 15 15
15 15 15 15 15 15 15 15 15 15 15 15 15 15 14 15 15 15 15 15 15 15 15 15 15 15 15 14 14 14 14 14 14 14 14 14 14 14 14 14 14 14 14
15 15 15 15 15 15 15 15 15 15 15 14 14 14 14 14 15 15 15 14 14 14 14 14 14 14 14 14 14 14 14 14 14 14 14 14 14 14 14 14 14 14 14
15 15 14 14 14 14 14 14 14 14 14 14 14 14 14 14 14 14 14 14 14 14 14 14 14 14 14 14 14 14 13 13 13 13 13 13 13 13 13 13 13 14 14
Wind_Speed
2 2 2 3 4 5 5 4 4 3 3 3 4 4 3 4 5 8 10 13 14 13 12 11 11 11 11 11 10 10 9 9 9 8 8 8 8 8 8 8 8 8 8
3 2 2 2 2 3 4 3 3 3 2 2 3 3 3 3 4 7 9 11 13 13 12 12 11 11 11 11 10 10 10 9 9 9 9 9 9 9 9 8 8 8 8
3 3 2 2 2 3 4 3 3 3 3 3 3 3 3 3 4 5 8 9 10 12 13 12 12 12 11 11 11 10 10 10 10 10 10 10 9 9 9 9 9 9 9
3 2 2 2 2 2 3 3 2 3 2 3 3 3 3 3 4 5 6 8 9 9 11 13 13 13 12 12 12 11 11 11 11 11 11 10 10 10 10 10 10 9 9
4 2 1 2 3 2 2 3 3 3 3 2 2 3 3 3 4 5 5 6 8 9 10 12 13 12 12 12 12 11 11 11 11 11 11 11 11 11 10 11 11 10 10
4 2 2 2 2 2 2 2 3 2 2 2 2 2 3 4 3 3 4 5 7 8 10 10 11 11 12 12 12 12 11 11 11 11 12 12 12 11 11 10 10 10 10
3 2 2 2 2 2 2 3 2 2 2 2 1 1 1 3 4 4 3 3 4 6 7 8 10 9 9 13 13 13 12 12 12 12 12 11 11 11 10 10 10 11 10
4 3 3 2 2 3 3 2 2 1 1 1 1 1 0 1 1 3 3 4 3 3 5 7 8 9 9 9 10 14 14 13 13 13 12 11 11 10 10 10 11 11 11
3 2 3 2 2 2 3 3 2 2 1 1 2 2 1 1 1 1 3 3 4 4 3 4 7 9 10 9 9 12 14 14 13 13 12 12 11 11 10 10 11 12 11
2 2 3 3 2 2 2 2 3 2 2 2 2 2 2 1 1 1 1 2 3 4 4 4 5 6 8 9 9 10 12 12 12 12 11 12 11 11 11 10 11 11 11
2 2 2 2 2 2 1 1 1 1 1 2 1 1 2 2 3 2 2 1 2 3 4 4 3 4 7 8 8 10 13 14 13 11 11 11 11 12 11 11 11 11 10
2 3 3 2 2 1 1 1 1 1 1 2 2 2 1 1 2 2 2 3 3 3 4 4 4 4 6 8 8 10 14 15 14 13 11 11 11 11 10 11 11 11 11
2 3 3 2 2 2 2 2 1 1 1 2 2 2 2 2 2 2 2 3 3 2 2 3 4 5 6 7 7 9 12 14 14 13 12 11 11 11 10 10 10 11 11
2 3 3 3 2 2 2 2 2 2 2 2 3 3 2 2 2 2 2 2 3 2 2 2 3 4 5 7 8 10 9 13 14 13 12 12 11 11 10 10 10 10 10
2 2 3 3 3 2 2 2 2 2 2 3 3 3 3 2 2 3 3 2 3 3 3 3 2 3 4 6 9 9 9 12 14 14 14 13 12 11 11 11 10 11 10
1 1 2 2 3 2 2 3 3 2 3 3 3 2 3 3 3 2 3 2 3 3 3 2 2 2 3 4 8 8 9 13 14 15 15 15 14 13 13 12 12 12 11
2 2 2 2 3 3 3 3 3 3 3 3 3 3 3 3 3 3 3 2 3 2 3 3 2 1 2 2 3 5 8 9 10 15 17 17 16 16 15 14 13 13 12
2 2 2 3 3 3 3 3 4 4 4 4 3 3 4 3 3 3 3 3 3 3 3 4 2 1 2 3 4 5 5 8 8 13 17 18 18 17 16 16 15 14 13
2 2 2 2 2 3 3 3 3 3 4 3 3 3 3 3 3 3 3 3 3 4 3 3 3 2 2 2 3 4 5 3 6 9 14 17 18 18 17 16 16 15 14
2 2 2 2 2 3 3 3 3 3 3 3 2 2 2 2 3 3 3 3 3 4 3 4 3 3 3 3 2 3 3 3 4 5 6 9 14 17 17 17 17 16 16
2 2 2 2 2 2 2 2 3 3 3 3 2 2 2 2 2 2 3 2 3 3 3 4 3 3 3 2 2 3 4 3 4 3 3 3 5 6 9 14 16 17 17
1 1 1 1 1 2 2 2 2 2 3 3 3 3 3 3 3 3 2 2 2 3 3 3 3 3 3 3 2 3 3 4 4 2 3 4 3 4 6 8 13 17 18
1 1 1 1 1 2 2 3 2 2 3 3 3 3 4 3 1 2 3 4 4 5 5 4 4 4 4 3 3 4 4 5 5 3 3 4 3 4 4 8 13 17 18
1 1 0 0 0 1 3 3 3 3 3 3 3 3 2 2 3 2 3 4 4 4 5 4 4 5 4 4 4 5 6 6 5 4 3 4 4 4 4 3 11 14 15
1 1 1 1 0 1 2 3 3 3 3 3 2 1 1 0 3 4 4 4 4 4 4 5 5 5 6 6 5 3 4 5 6 5 3 3 3 3 3 3 6 11 13
0 1 1 1 1 0 1 2 2 3 2 2 1 0 1 1 2 2 3 4 5 5 4 4 4 5 6 5 5 4 4 4 4 4 3 3 3 3 3 3 2 4 7
Wind_Direction
133 109 114 135 150 161 169 177 172 163 159 165 176 172 160 153 150 145 156 170 174 178 184 190 195 200 202 202 200 200 199 201 201 199 202 205 208 207 208 210 212 214 214
121 114 115 118 145 157 156 157 146 157 168 162 160 162 166 166 151 150 158 171 180 185 189 196 200 202 204 203 202 201 203 206 205 204 205 208 210 212 213 216 214 211 212
126 124 118 140 150 147 147 149 161 165 169 171 173 173 160 165 151 151 158 170 184 193 196 198 199 201 203 204 206 206 208 211 211 210 210 210 212 214 217 216 217 215 215
132 114 142 145 139 144 145 147 171 156 157 161 160 166 159 154 164 173 176 179 183 192 197 201 203 206 207 210 211 210 212 214 214 212 212 212 215 216 217 217 218 219 218
154 153 133 112 146 145 148 156 140 145 158 155 154 167 168 172 180 193 183 188 192 189 188 196 202 204 208 210 209 211 213 215 214 213 214 214 217 219 219 219 220 221 220
157 158 135 142 160 131 132 115 114 144 147 157 177 178 175 179 185 188 193 198 196 194 189 187 193 205 212 212 212 213 215 216 213 213 215 216 218 219 219 219 221 220 219
150 143 123 133 137 123 126 125 128 144 160 159 123 114 186 190 187 191 198 202 194 188 182 181 184 195 201 211 213 214 216 216 213 212 213 216 218 217 216 216 218 218 220
155 155 129 132 125 130 139 139 128 134 169 174 169 178 214 215 190 207 189 196 193 184 185 190 189 194 196 190 203 214 219 220 217 215 214 215 215 216 216 219 218 219 221
141 122 127 125 115 132 154 166 174 192 193 223 208 190 185 209 222 230 208 197 184 186 190 188 191 196 200 193 196 209 215 219 219 218 216 214 213 215 217 220 220 221 221
123 135 136 142 141 146 156 182 160 193 209 237 221 223 223 191 209 229 238 203 192 187 202 214 206 188 199 191 191 193 201 207 213 217 218 216 216 217 220 222 223 222 223
147 154 147 148 153 162 146 124 107 177 225 245 249 229 219 213 226 217 238 243 221 203 203 204 194 192 191 184 184 191 196 202 206 212 217 217 218 220 222 223 222 223 223
164 160 157 155 152 156 163 156 150 175 272 282 287 275 248 221 233 230 228 237 242 233 208 195 195 190 184 184 197 197 195 197 201 207 214 216 217 220 222 224 223 223 225
169 166 160 157 155 165 170 148 172 215 247 273 284 283 283 267 254 249 226 247 261 257 222 200 194 186 187 176 183 189 190 194 198 204 210 212 214 217 221 222 222 224 228
170 152 164 166 172 187 188 171 204 217 228 250 267 277 281 285 278 260 249 247 264 267 252 238 199 185 181 173 181 182 187 195 198 202 206 208 210 214 216 218 221 223 226
185 176 174 169 178 192 203 214 214 231 232 235 249 265 261 271 265 257 257 247 245 258 253 236 214 187 174 170 179 184 190 198 201 203 205 207 209 212 214 216 219 219 221
186 204 191 180 188 198 214 222 226 232 235 241 237 262 275 268 267 259 255 258 256 250 257 252 236 191 177 197 190 194 198 200 204 204 207 210 211 212 214 216 219 220 219
192 201 203 202 203 206 221 225 230 229 232 243 249 253 260 270 280 281 276 268 264 248 252 276 262 205 181 193 188 208 199 197 206 207 209 211 213 215 217 218 219 218 218
203 199 208 216 220 220 227 234 234 241 239 243 244 247 254 259 272 278 281 277 277 267 250 258 262 251 231 201 200 217 217 217 212 212 210 212 215 217 218 218 218 217 216
207 214 211 219 229 240 245 248 245 249 252 254 251 248 252 251 269 265 276 285 278 276 266 263 265 258 246 230 219 241 241 233 232 224 213 215 217 218 215 216 216 216 216
215 226 235 236 236 242 250 255 251 253 259 265 266 264 269 268 277 280 270 280 282 287 282 271 265 261 248 242 228 242 254 245 254 241 224 218 218 216 217 218 218 217 216
216 221 236 249 251 251 259 260 251 240 244 252 254 259 269 280 280 269 272 289 287 283 278 271 267 275 273 257 255 257 262 257 255 247 228 230 208 210 218 224 223 221 218
218 231 250 262 262 275 332 350 293 266 255 247 247 248 242 251 247 232 242 259 264 270 286 288 281 274 270 267 271 277 278 275 272 252 240 252 226 214 212 215 215 215 215
181 216 276 277 300 340 352 356 331 272 268 263 266 268 272 282 252 257 242 248 259 263 253 266 287 289 288 284 268 268 276 278 271 264 253 258 246 240 236 222 209 209 211
182 196 266 350 281 335 359 349 327 265 265 260 260 271 284 328 312 310 286 267 256 259 257 248 260 273 284 303 283 268 269 270 271 264 247 259 261 258 262 228 212 209 211
182 169 144 134 314 336 351 341 325 285 273 273 271 294 290 294 319 320 298 290 286 276 263 253 246 255 263 274 278 283 281 275 276 273 253 251 262 276 267 236 217 213 216
192 203 177 169 200 289 336 357 341 294 286 290 287 313 28 330 309 327 300 298 290 291 293 279 273 269 265 264 257 242 261 276 283 280 262 251 265 275 269 250 220 209 221
Height
1524 1525 1525 1526 1528 1530 1532 1535 1538 1540 1543 1544 1547 1549 1550 1552 1553 1554 1555 1556 1557 1557 1559 1560 1561 1562 1563 1563 1564 1565 1566 1567 1568 1569 1570 1571 1572 1573 1574 1575 1576 1577 1578
1525 1526 1527 1528 1529 1531 1533 1535 1538 1540 1542 1544 1546 1547 1549 1551 1552 1553 1554 1555 1556 1557 1557 1558 1559 1560 1561 1562 1563 1564 1564 1565 1566 1567 1568 1569 1570 1571 1572 1573 1574 1575 1575
1527 1527 1528 1529 1531 1532 1534 1536 1538 1540 1542 1543 1545 1546 1548 1550 1551 1552 1553 1554 1554 1555 1556 1557 1558 1559 1560 1560 1561 1562 1563 1563 1564 1565 1566 1567 1568 1569 1570 1571 1572 1573 1573
1528 1528 1529 1531 1532 1533 1535 1536 1538 1540 1541 1543 1544 1546 1547 1549 1550 1551 1552 1552 1553 1553 1554 1555 1556 1557 1558 1558 1559 1560 1561 1561 1562 1563 1564 1565 1565 1567 1568 1568 1569 1570 1571
1529 1530 1530 1531 1533 1534 1536 1537 1538 1540 1541 1542 1544 1545 1546 1547 1548 1550 1550 1551 1552 1552 1553 1554 1555 1555 1556 1556 1557 1558 1559 1559 1560 1561 1561 1562 1563 1564 1565 1566 1567 1568 1568
1530 1531 1532 1532 1534 1535 1536 1537 1538 1540 1541 1542 1543 1544 1545 1546 1547 1548 1549 1550 1550 1551 1551 1552 1553 1553 1554 1555 1555 1556 1557 1557 1558 1558 1559 1560 1561 1562 1563 1564 1564 1565 1566
1531 1531 1532 1533 1534 1535 1536 1537 1538 1539 1541 1542 1543 1544 1545 1546 1546 1547 1548 1548 1548 1549 1550 1551 1551 1551 1552 1552 1553 1554 1554 1555 1555 1556 1557 1558 1558 1559 1560 1561 1562 1563 1563
1531 1532 1532 1533 1534 1535 1536 1537 1538 1539 1541 1542 1543 1544 1544 1546 1545 1546 1546 1546 1547 1548 1548 1549 1549 1550 1550 1550 1551 1551 1552 1553 1553 1554 1555 1555 1556 1557 1558 1559 1559 1560 1561
1532 1532 1533 1533 1534 1535 1536 1537 1538 1539 1540 1541 1542 1543 1543 1543 1544 1545 1544 1545 1545 1546 1546 1547 1547 1547 1548 1548 1548 1549 1550 1550 1551 1551 1552 1553 1554 1555 1555 1556 1557 1558 1558
1532 1533 1533 1534 1535 1535 1536 1537 1538 1538 1539 1540 1541 1542 1543 1543 1543 1543 1544 1544 1544 1544 1544 1545 1545 1545 1546 1546 1546 1547 1547 1547 1548 1549 1549 1550 1551 1552 1553 1553 1554 1555 1556
1532 1533 1534 1534 1535 1535 1536 1536 1537 1538 1538 1539 1540 1540 1541 1542 1542 1542 1542 1542 1542 1542 1542 1542 1542 1543 1543 1544 1544 1544 1544 1545 1545 1546 1546 1547 1548 1548 1549 1550 1551 1552 1552
1532 1533 1533 1534 1534 1535 1535 1535 1536 1537 1537 1537 1538 1539 1540 1540 1540 1540 1540 1540 1540 1540 1540 1539 1539 1540 1541 1541 1541 1542 1542 1542 1543 1543 1544 1544 1544 1545 1546 1547 1547 1548 1549
1532 1532 1533 1533 1534 1534 1534 1535 1535 1535 1536 1536 1537 1537 1538 1538 1538 1539 1538 1538 1538 1537 1537 1537 1537 1538 1538 1539 1539 1539 1539 1540 1540 1540 1541 1541 1541 1542 1542 1543 1544 1545 1546
1531 1531 1532 1532 1532 1533 1533 1533 1534 1534 1534 1535 1535 1536 1536 1536 1537 1537 1537 1536 1536 1535 1535 1535 1535 1536 1536 1536 1536 1537 1537 1537 1537 1537 1537 1538 1538 1539 1539 1540 1541 1541 1542
1530 1530 1530 1531 1531 1531 1532 1532 1532 1533 1533 1533 1533 1534 1534 1534 1534 1534 1534 1535 1535 1533 1532 1532 1533 1533 1534 1534 1533 1534 1534 1534 1534 1534 1534 1535 1535 1536 1536 1537 1537 1538 1538
1528 1528 1529 1529 1529 1529 1530 1530 1530 1531 1531 1531 1531 1531 1531 1531 1532 1532 1532 1532 1532 1531 1530 1530 1530 1531 1531 1531 1531 1531 1531 1531 1531 1531 1532 1532 1532 1532 1533 1533 1534 1534 1535
1526 1526 1527 1527 1527 1527 1528 1528 1528 1529 1529 1528 1528 1529 1529 1529 1529 1529 1529 1529 1529 1529 1527 1527 1527 1528 1528 1528 1528 1528 1528 1528 1528 1528 1529 1529 1529 1529 1529 1529 1530 1530 1531
1523 1524 1524 1525 1525 1525 1526 1526 1526 1526 1526 1526 1526 1526 1526 1526 1526 1526 1526 1526 1526 1526 1526 1524 1524 1525 1525 1525 1525 1525 1525 1525 1525 1525 1525 1525 1526 1526 1526 1526 1526 1527 1527
1521 1522 1522 1522 1523 1523 1523 1523 1523 1523 1523 1523 1523 1523 1523 1523 1523 1523 1522 1523 1523 1523 1523 1522 1522 1522 1522 1522 1522 1522 1522 1522 1522 1522 1522 1521 1522 1522 1522 1522 1522 1523 1523
1519 1519 1520 1520 1520 1520 1520 1520 1520 1520 1520 1520 1520 1520 1520 1520 1520 1520 1520 1520 1520 1520 1520 1519 1519 1518 1518 1518 1518 1518 1518 1518 1518 1518 1518 1517 1517 1518 1518 1518 1518 1519 1519
1517 1517 1517 1517 1517 1517 1517 1517 1517 1517 1517 1517 1517 1517 1517 1517 1516 1517 1517 1516 1517 1516 1516 1516 1515 1515 1515 1515 1515 1515 1514 1514 1514 1514 1514 1513 1513 1513 1513 1513 1514 1514 1514
1514 1514 1514 1514 1514 1514 1515 1514 1514 1514 1514 1514 1513 1513 1514 1514 1513 1513 1513 1513 1513 1513 1512 1512 1512 1512 1511 1511 1511 1511 1511 1511 1510 1511 1510 1509 1509 1508 1508 1509 1509 1509 1510
1511 1511 1511 1511 1511 1511 1511 1511 1511 1511 1511 1511 1511 1511 1511 1511 1510 1509 1509 1510 1509 1509 1510 1509 1508 1508 1508 1507 1507 1507 1507 1506 1506 1506 1506 1505 1505 1504 1505 1504 1505 1505 1505
1509 1508 1509 1509 1508 1508 1508 1507 1507 1507 1507 1507 1508 1508 1507 1506 1506 1506 1505 1505 1505 1505 1505 1505 1504 1504 1504 1504 1504 1503 1502 1502 1502 1502 1502 1501 1500 1500 1500 1500 1500 1500 1501
1506 1506 1506 1506 1506 1506 1505 1505 1504 1504 1504 1504 1504 1504 1503 1502 1503 1502 1502 1501 1500 1500 1501 1501 1500 1500 1500 1500 1500 1499 1498 1498 1497 1497 1497 1496 1495 1495 1495 1495 1495 1495 1495
1505 1505 1505 1504 1504 1504 1503 1502 1502 1502 1501 1501 1501 1500 1499 1499 1499 1499 1498 1497 1496 1496 1496 1496 1496 1496 1496 1495 1495 1495 1494 1493 1493 1492 1492 1492 1491 1491 1490 1490 1490 1490 1490